Location: ??????????
(54.4061°N, 22.6114°E)
Time: 22:05:55
(UTC+00:00)

STARLINK-37 - Pass Details

Date: 23 October 2019
Orbit: 548 x 551 km, 53.0° (Epoch: 10 November)

Event Time Altitude Azimuth Distance (km) Brightness Sun altitude
Rises 15:47:11 0° 263° (W) 2,718 9.9 -5.5°
Reaches altitude 10° 15:49:25 10° 261° (W) 1,824 8.2 -5.8°
Maximum altitude 15:53:33 74° 177° (S) 576 3.8 -6.4°
Drops below altitude 10° 15:57:41 10° 93° (E) 1,824 5.6 -7.0°
Enters shadow 15:58:01 - 92° (E) 1,955 5.8 -7.0°
